iso_date,epoch_date,Year,Hour,Min,DOY,POS_DOY,Lat,Lon,BP,Ts,Ta,has_bp,has_ts,has_ta,BuoyID,Buoy_Type,Buoy_Owner,Logistics,Hemisphere
2018-06-11T14:51:21Z,1528728682,2018,14,51,162.619,162.619,60.42178,-93.9947,987.5,-30.0,-999.0,yes,yes,no,300234064737090,UPTEMPO,PSC-UPTEMPO,Amundsenn,North
2018-06-11T15:01:26Z,1528729286,2018,15,1,162.626,162.626,60.42426,-94.00237,1002.9,12.67,-999.0,yes,yes,no,300234064737090,UPTEMPO,PSC-UPTEMPO,Amundsenn,North
2018-06-11T15:14:24Z,1528730064,2018,15,15,162.635,162.635,60.42623,-94.00244,1003.0,13.07,-999.0,yes,yes,no,300234064737090,UPTEMPO,PSC-UPTEMPO,Amundsenn,North
2018-06-11T15:21:36Z,1528730496,2018,15,22,162.64,162.64,60.42725,-94.00301,1002.8,13.37,-999.0,yes,yes,no,300234064737090,UPTEMPO,PSC-UPTEMPO,Amundsenn,North
2018-06-11T15:31:40Z,1528731101,2018,15,32,162.647,162.647,60.42341,-94.00181,1002.7,12.57,-999.0,yes,yes,no,300234064737090,UPTEMPO,PSC-UPTEMPO,Amundsenn,North
2018-06-11T15:40:19Z,1528731619,2018,15,41,162.653,162.653,60.42004,-94.00446,1002.7,11.0,-999.0,yes,yes,no,300234064737090,UPTEMPO,PSC-UPTEMPO,Amundsenn,North
2018-06-11T15:50:24Z,1528732224,2018,15,51,162.66,162.66,60.42064,-94.00507,1002.8,10.59,-999.0,yes,yes,no,300234064737090,UPTEMPO,PSC-UPTEMPO,Amundsenn,North
2018-06-11T16:00:28Z,1528732829,2018,16,1,162.667,162.667,60.42152,-94.00622,1002.7,10.13,-999.0,yes,yes,no,300234064737090,UPTEMPO,PSC-UPTEMPO,Amundsenn,North
2018-06-11T16:10:33Z,1528733434,2018,16,11,162.674,162.674,60.42213,-94.007,1002.6,9.94,-999.0,yes,yes,no,300234064737090,UPTEMPO,PSC-UPTEMPO,Amundsenn,North
2018-06-11T16:20:38Z,1528734038,2018,16,21,162.681,162.681,60.42283,-94.00831,1002.4,9.76,-999.0,yes,yes,no,300234064737090,UPTEMPO,PSC-UPTEMPO,Amundsenn,North
2018-06-11T16:30:43Z,1528734643,2018,16,31,162.688,162.688,60.42323,-94.01006,1002.4,9.7,-999.0,yes,yes,no,300234064737090,UPTEMPO,PSC-UPTEMPO,Amundsenn,North
2018-06-11T16:40:48Z,1528735248,2018,16,41,162.695,162.695,60.42413,-94.01117,1002.3,9.66,-999.0,yes,yes,no,300234064737090,UPTEMPO,PSC-UPTEMPO,Amundsenn,North
2018-06-11T16:50:52Z,1528735853,2018,16,51,162.702,162.702,60.42468,-94.01314,1002.2,9.65,-999.0,yes,yes,no,300234064737090,UPTEMPO,PSC-UPTEMPO,Amundsenn,North
2018-06-11T17:00:57Z,1528736458,2018,17,1,162.709,162.709,60.42498,-94.01509,1002.1,9.58,-999.0,yes,yes,no,300234064737090,UPTEMPO,PSC-UPTEMPO,Amundsenn,North
2018-06-11T17:11:02Z,1528737062,2018,17,11,162.716,162.716,60.42687,-94.01539,1002.1,9.51,-999.0,yes,yes,no,300234064737090,UPTEMPO,PSC-UPTEMPO,Amundsenn,North
2018-06-11T17:21:07Z,1528737667,2018,17,21,162.723,162.723,60.42701,-94.01118,1002.3,8.49,-999.0,yes,yes,no,300234064737090,UPTEMPO,PSC-UPTEMPO,Amundsenn,North
2018-06-11T17:31:12Z,1528738272,2018,17,31,162.73,162.73,60.42843,-94.00783,1002.3,8.21,-999.0,yes,yes,no,300234064737090,UPTEMPO,PSC-UPTEMPO,Amundsenn,North
2018-06-11T17:41:16Z,1528738877,2018,17,41,162.737,162.737,60.42178,-94.00867,1002.4,8.13,-999.0,yes,yes,no,300234064737090,UPTEMPO,PSC-UPTEMPO,Amundsenn,North
2018-06-11T17:51:21Z,1528739482,2018,17,51,162.744,162.744,60.41793,-94.00575,1002.3,8.94,-999.0,yes,yes,no,300234064737090,UPTEMPO,PSC-UPTEMPO,Amundsenn,North
2018-06-11T18:01:26Z,1528740086,2018,18,1,162.751,162.751,60.41879,-94.00792,1002.2,8.63,-999.0,yes,yes,no,300234064737090,UPTEMPO,PSC-UPTEMPO,Amundsenn,North
2018-06-11T18:11:31Z,1528740691,2018,18,11,162.758,162.758,60.41928,-94.00993,1002.2,7.76,-999.0,yes,yes,no,300234064737090,UPTEMPO,PSC-UPTEMPO,Amundsenn,North
2018-06-11T18:21:36Z,1528741296,2018,18,21,162.765,162.765,60.41981,-94.01496,1002.1,7.54,-999.0,yes,yes,no,300234064737090,UPTEMPO,PSC-UPTEMPO,Amundsenn,North
2018-06-11T18:31:40Z,1528741901,2018,18,31,162.772,162.772,60.41916,-94.02285,1002.2,7.48,-999.0,yes,yes,no,300234064737090,UPTEMPO,PSC-UPTEMPO,Amundsenn,North
2018-06-11T18:40:19Z,1528742419,2018,18,41,162.778,162.778,60.4169,-94.0299,1002.3,8.54,-999.0,yes,yes,no,300234064737090,UPTEMPO,PSC-UPTEMPO,Amundsenn,North
2018-06-11T18:50:24Z,1528743024,2018,18,51,162.785,162.785,60.4148,-94.03477,1002.1,12.55,-999.0,yes,yes,no,300234064737090,UPTEMPO,PSC-UPTEMPO,Amundsenn,North
2018-06-11T19:00:28Z,1528743629,2018,19,1,162.792,162.792,60.41387,-94.03965,1002.0,14.78,-999.0,yes,yes,no,300234064737090,UPTEMPO,PSC-UPTEMPO,Amundsenn,North
2018-06-11T19:10:33Z,1528744234,2018,19,11,162.799,162.799,60.41328,-94.04541,1002.1,16.53,-999.0,yes,yes,no,300234064737090,UPTEMPO,PSC-UPTEMPO,Amundsenn,North
2018-06-11T19:20:38Z,1528744838,2018,19,21,162.806,162.806,60.41249,-94.05118,1002.1,17.46,-999.0,yes,yes,no,300234064737090,UPTEMPO,PSC-UPTEMPO,Amundsenn,North
2018-06-11T19:30:43Z,1528745443,2018,19,31,162.813,162.813,60.42194,-94.01965,1002.3,13.41,-999.0,yes,yes,no,300234064737090,UPTEMPO,PSC-UPTEMPO,Amundsenn,North
2018-06-11T19:40:48Z,1528746048,2018,19,41,162.82,162.82,60.41759,-94.01019,1002.0,11.49,-999.0,yes,yes,no,300234064737090,UPTEMPO,PSC-UPTEMPO,Amundsenn,North
2018-06-11T19:50:52Z,1528746653,2018,19,51,162.827,162.827,60.41705,-93.99934,1002.0,12.09,-999.0,yes,yes,no,300234064737090,UPTEMPO,PSC-UPTEMPO,Amundsenn,North
2018-06-11T20:00:57Z,1528747258,2018,20,1,162.834,162.834,60.42427,-94.00333,1002.1,8.77,-999.0,yes,yes,no,300234064737090,UPTEMPO,PSC-UPTEMPO,Amundsenn,North
2018-06-11T20:11:02Z,1528747862,2018,20,11,162.841,162.841,60.42672,-94.01205,1001.9,8.15,-999.0,yes,yes,no,300234064737090,UPTEMPO,PSC-UPTEMPO,Amundsenn,North
2018-06-11T20:21:07Z,1528748467,2018,20,21,162.848,162.848,60.42743,-94.01545,1001.9,8.84,-999.0,yes,yes,no,300234064737090,UPTEMPO,PSC-UPTEMPO,Amundsenn,North
2018-06-11T20:31:12Z,1528749072,2018,20,31,162.855,162.855,60.42806,-94.02042,1002.1,11.49,-999.0,yes,yes,no,300234064737090,UPTEMPO,PSC-UPTEMPO,Amundsenn,North
2018-06-11T20:41:16Z,1528749677,2018,20,41,162.862,162.862,60.42695,-94.02785,1001.9,12.56,-999.0,yes,yes,no,300234064737090,UPTEMPO,PSC-UPTEMPO,Amundsenn,North
2018-06-11T20:51:21Z,1528750282,2018,20,51,162.869,162.869,60.42423,-94.03199,1001.7,12.0,-999.0,yes,yes,no,300234064737090,UPTEMPO,PSC-UPTEMPO,Amundsenn,North
2018-06-11T21:01:26Z,1528750886,2018,21,1,162.876,162.876,60.42411,-94.02909,1001.7,10.39,-999.0,yes,yes,no,300234064737090,UPTEMPO,PSC-UPTEMPO,Amundsenn,North
2018-06-11T21:11:31Z,1528751491,2018,21,11,162.883,162.883,60.42661,-93.99379,1001.8,9.58,-999.0,yes,yes,no,300234064737090,UPTEMPO,PSC-UPTEMPO,Amundsenn,North
2018-06-11T21:21:36Z,1528752096,2018,21,21,162.89,162.89,60.43928,-93.93101,1001.7,7.67,-999.0,yes,yes,no,300234064737090,UPTEMPO,PSC-UPTEMPO,Amundsenn,North
2018-06-11T21:31:40Z,1528752701,2018,21,31,162.897,162.897,60.45403,-93.87686,1001.9,6.83,-999.0,yes,yes,no,300234064737090,UPTEMPO,PSC-UPTEMPO,Amundsenn,North
2018-06-11T21:40:19Z,1528753219,2018,21,41,162.903,162.903,60.47221,-93.83438,1001.9,5.78,-999.0,yes,yes,no,300234064737090,UPTEMPO,PSC-UPTEMPO,Amundsenn,North
2018-06-11T21:50:24Z,1528753824,2018,21,51,162.91,162.91,60.48591,-93.78542,1001.9,5.71,-999.0,yes,yes,no,300234064737090,UPTEMPO,PSC-UPTEMPO,Amundsenn,North
2018-06-11T22:00:28Z,1528754429,2018,22,1,162.917,162.917,60.50359,-93.74369,1002.0,5.43,-999.0,yes,yes,no,300234064737090,UPTEMPO,PSC-UPTEMPO,Amundsenn,North
2018-06-11T22:10:33Z,1528755034,2018,22,11,162.924,162.924,60.51419,-93.68397,1002.0,5.36,-999.0,yes,yes,no,300234064737090,UPTEMPO,PSC-UPTEMPO,Amundsenn,North
2018-06-11T22:20:38Z,1528755638,2018,22,21,162.931,162.931,60.5298,-93.62369,1002.0,5.33,-999.0,yes,yes,no,300234064737090,UPTEMPO,PSC-UPTEMPO,Amundsenn,North
2018-06-11T22:30:43Z,1528756243,2018,22,31,162.938,162.938,60.53686,-93.56578,1002.0,5.47,-999.0,yes,yes,no,300234064737090,UPTEMPO,PSC-UPTEMPO,Amundsenn,North
2018-06-11T22:40:48Z,1528756848,2018,22,41,162.945,162.945,60.55402,-93.50839,1002.2,4.95,-999.0,yes,yes,no,300234064737090,UPTEMPO,PSC-UPTEMPO,Amundsenn,North
2018-06-11T22:50:52Z,1528757453,2018,22,51,162.952,162.952,60.57104,-93.45131,1002.3,4.54,-999.0,yes,yes,no,300234064737090,UPTEMPO,PSC-UPTEMPO,Amundsenn,North
2018-06-11T23:00:57Z,1528758058,2018,23,1,162.959,162.959,60.59738,-93.41209,1002.4,4.49,-999.0,yes,yes,no,300234064737090,UPTEMPO,PSC-UPTEMPO,Amundsenn,North
2018-06-11T23:11:02Z,1528758662,2018,23,11,162.966,162.966,60.61096,-93.34895,1002.4,4.61,-999.0,yes,yes,no,300234064737090,UPTEMPO,PSC-UPTEMPO,Amundsenn,North
2018-06-11T23:21:07Z,1528759267,2018,23,21,162.973,162.973,60.62196,-93.28259,1002.5,4.64,-999.0,yes,yes,no,300234064737090,UPTEMPO,PSC-UPTEMPO,Amundsenn,North
2018-06-11T23:31:12Z,1528759872,2018,23,31,162.98,162.98,60.63227,-93.21554,1002.6,4.61,-999.0,yes,yes,no,300234064737090,UPTEMPO,PSC-UPTEMPO,Amundsenn,North
2018-06-11T23:41:16Z,1528760477,2018,23,41,162.987,162.987,60.64,-93.14646,1002.7,4.64,-999.0,yes,yes,no,300234064737090,UPTEMPO,PSC-UPTEMPO,Amundsenn,North
2018-06-11T23:51:21Z,1528761082,2018,23,51,162.994,162.994,60.64829,-93.07719,1002.9,4.66,-999.0,yes,yes,no,300234064737090,UPTEMPO,PSC-UPTEMPO,Amundsenn,North
2018-06-12T00:01:26Z,1528761686,2018,0,1,163.001,163.001,60.65825,-93.00733,1002.8,4.72,-999.0,yes,yes,no,300234064737090,UPTEMPO,PSC-UPTEMPO,Amundsenn,North
2018-06-12T00:11:31Z,1528762291,2018,0,11,163.008,163.008,60.6715,-92.94331,1003.0,4.64,-999.0,yes,yes,no,300234064737090,UPTEMPO,PSC-UPTEMPO,Amundsenn,North
2018-06-12T00:21:36Z,1528762896,2018,0,21,163.015,163.015,60.68534,-92.87726,1002.9,4.64,-999.0,yes,yes,no,300234064737090,UPTEMPO,PSC-UPTEMPO,Amundsenn,North
2018-06-14T01:39:21Z,1528940362,2018,1,40,165.069,165.069,62.20604,-88.3698,1002.9,-30.0,-999.0,yes,yes,no,300234064737090,UPTEMPO,PSC-UPTEMPO,Amundsenn,North
2018-06-14T01:50:52Z,1528941053,2018,1,51,165.077,165.077,62.20381,-88.37016,1023.5,0.81,-999.0,yes,yes,no,300234064737090,UPTEMPO,PSC-UPTEMPO,Amundsenn,North
2018-06-14T02:00:57Z,1528941658,2018,2,1,165.084,165.084,62.20226,-88.36914,1023.5,0.51,-999.0,yes,yes,no,300234064737090,UPTEMPO,PSC-UPTEMPO,Amundsenn,North
2018-06-14T02:11:02Z,1528942262,2018,2,11,165.091,165.091,62.20072,-88.36778,1023.4,0.67,-999.0,yes,yes,no,300234064737090,UPTEMPO,PSC-UPTEMPO,Amundsenn,North
2018-06-14T02:21:07Z,1528942867,2018,2,21,165.098,165.098,62.19929,-88.36659,1023.3,0.74,-999.0,yes,yes,no,300234064737090,UPTEMPO,PSC-UPTEMPO,Amundsenn,North
2018-06-14T02:31:12Z,1528943472,2018,2,31,165.105,165.105,62.19794,-88.3656,1023.3,0.9,-999.0,yes,yes,no,300234064737090,UPTEMPO,PSC-UPTEMPO,Amundsenn,North
2018-06-14T02:41:16Z,1528944077,2018,2,41,165.112,165.112,62.19668,-88.36479,1023.1,0.95,-999.0,yes,yes,no,300234064737090,UPTEMPO,PSC-UPTEMPO,Amundsenn,North
2018-06-14T02:51:21Z,1528944682,2018,2,51,165.119,165.119,62.19558,-88.3641,1023.0,1.01,-999.0,yes,yes,no,300234064737090,UPTEMPO,PSC-UPTEMPO,Amundsenn,North
2018-06-14T03:01:26Z,1528945286,2018,3,1,165.126,165.126,62.19466,-88.36344,1023.1,1.02,-999.0,yes,yes,no,300234064737090,UPTEMPO,PSC-UPTEMPO,Amundsenn,North
2018-06-14T03:11:31Z,1528945891,2018,3,11,165.133,165.133,62.19381,-88.36309,1022.8,0.92,-999.0,yes,yes,no,300234064737090,UPTEMPO,PSC-UPTEMPO,Amundsenn,North
2018-06-14T03:21:36Z,1528946496,2018,3,21,165.14,165.14,62.19309,-88.36321,1022.7,0.86,-999.0,yes,yes,no,300234064737090,UPTEMPO,PSC-UPTEMPO,Amundsenn,North
2018-06-14T03:31:40Z,1528947101,2018,3,31,165.147,165.147,62.19254,-88.36369,1022.6,0.85,-999.0,yes,yes,no,300234064737090,UPTEMPO,PSC-UPTEMPO,Amundsenn,North
2018-06-14T03:40:19Z,1528947619,2018,3,41,165.153,165.153,62.19208,-88.36428,1022.5,0.86,-999.0,yes,yes,no,300234064737090,UPTEMPO,PSC-UPTEMPO,Amundsenn,North
2018-06-14T03:50:24Z,1528948224,2018,3,51,165.16,165.16,62.19167,-88.36504,1022.6,0.87,-999.0,yes,yes,no,300234064737090,UPTEMPO,PSC-UPTEMPO,Amundsenn,North
2018-06-14T04:00:28Z,1528948829,2018,4,1,165.167,165.167,62.19131,-88.366,1022.5,0.69,-999.0,yes,yes,no,300234064737090,UPTEMPO,PSC-UPTEMPO,Amundsenn,North
2018-06-14T04:10:33Z,1528949434,2018,4,11,165.174,165.174,62.19117,-88.3674,1022.5,0.62,-999.0,yes,yes,no,300234064737090,UPTEMPO,PSC-UPTEMPO,Amundsenn,North
2018-06-14T04:20:38Z,1528950038,2018,4,21,165.181,165.181,62.19107,-88.36901,1022.4,0.67,-999.0,yes,yes,no,300234064737090,UPTEMPO,PSC-UPTEMPO,Amundsenn,North
2018-06-14T04:30:43Z,1528950643,2018,4,31,165.188,165.188,62.19118,-88.37089,1022.4,0.66,-999.0,yes,yes,no,300234064737090,UPTEMPO,PSC-UPTEMPO,Amundsenn,North
2018-06-14T04:40:48Z,1528951248,2018,4,41,165.195,165.195,62.19131,-88.37286,1022.3,0.68,-999.0,yes,yes,no,300234064737090,UPTEMPO,PSC-UPTEMPO,Amundsenn,North
2018-06-14T04:50:52Z,1528951853,2018,4,51,165.202,165.202,62.19168,-88.37523,1022.2,0.68,-999.0,yes,yes,no,300234064737090,UPTEMPO,PSC-UPTEMPO,Amundsenn,North
2018-06-14T05:00:57Z,1528952458,2018,5,1,165.209,165.209,62.1922,-88.37785,1022.2,0.74,-999.0,yes,yes,no,300234064737090,UPTEMPO,PSC-UPTEMPO,Amundsenn,North
2018-06-14T05:11:02Z,1528953062,2018,5,11,165.216,165.216,62.19287,-88.38049,1022.1,0.77,-999.0,yes,yes,no,300234064737090,UPTEMPO,PSC-UPTEMPO,Amundsenn,North
2018-06-14T05:21:07Z,1528953667,2018,5,21,165.223,165.223,62.19349,-88.38313,1022.2,0.72,-999.0,yes,yes,no,300234064737090,UPTEMPO,PSC-UPTEMPO,Amundsenn,North
2018-06-14T05:31:12Z,1528954272,2018,5,31,165.23,165.23,62.19432,-88.38595,1022.3,0.65,-999.0,yes,yes,no,300234064737090,UPTEMPO,PSC-UPTEMPO,Amundsenn,North
2018-06-14T05:41:16Z,1528954877,2018,5,41,165.237,165.237,62.1951,-88.38857,1022.2,0.59,-999.0,yes,yes,no,300234064737090,UPTEMPO,PSC-UPTEMPO,Amundsenn,North
2018-06-14T05:51:21Z,1528955482,2018,5,51,165.244,165.244,62.19603,-88.39143,1022.2,0.54,-999.0,yes,yes,no,300234064737090,UPTEMPO,PSC-UPTEMPO,Amundsenn,North
2018-06-14T06:01:26Z,1528956086,2018,6,1,165.251,165.251,62.19706,-88.39441,1022.3,0.65,-999.0,yes,yes,no,300234064737090,UPTEMPO,PSC-UPTEMPO,Amundsenn,North
2018-06-14T06:11:31Z,1528956691,2018,6,11,165.258,165.258,62.19822,-88.39733,1022.0,0.75,-999.0,yes,yes,no,300234064737090,UPTEMPO,PSC-UPTEMPO,Amundsenn,North
2018-06-14T06:21:36Z,1528957296,2018,6,21,165.265,165.265,62.1994,-88.40057,1022.0,0.8,-999.0,yes,yes,no,300234064737090,UPTEMPO,PSC-UPTEMPO,Amundsenn,North
2018-06-14T06:31:40Z,1528957901,2018,6,31,165.272,165.272,62.20059,-88.40366,1022.0,0.81,-999.0,yes,yes,no,300234064737090,UPTEMPO,PSC-UPTEMPO,Amundsenn,North
2018-06-14T06:40:19Z,1528958419,2018,6,41,165.278,165.278,62.20183,-88.40717,1022.0,0.87,-999.0,yes,yes,no,300234064737090,UPTEMPO,PSC-UPTEMPO,Amundsenn,North
2018-06-14T06:50:24Z,1528959024,2018,6,51,165.285,165.285,62.20302,-88.41072,1022.1,0.85,-999.0,yes,yes,no,300234064737090,UPTEMPO,PSC-UPTEMPO,Amundsenn,North
2018-06-14T07:00:28Z,1528959629,2018,7,1,165.292,165.292,62.20413,-88.41398,1022.1,0.85,-999.0,yes,yes,no,300234064737090,UPTEMPO,PSC-UPTEMPO,Amundsenn,North
2018-06-14T07:10:33Z,1528960234,2018,7,11,165.299,165.299,62.20533,-88.41745,1022.0,0.86,-999.0,yes,yes,no,300234064737090,UPTEMPO,PSC-UPTEMPO,Amundsenn,North
2018-06-14T07:20:38Z,1528960838,2018,7,21,165.306,165.306,62.2064,-88.42075,1022.0,0.9,-999.0,yes,yes,no,300234064737090,UPTEMPO,PSC-UPTEMPO,Amundsenn,North
2018-06-14T07:30:43Z,1528961443,2018,7,31,165.313,165.313,62.20747,-88.42396,1022.2,0.86,-999.0,yes,yes,no,300234064737090,UPTEMPO,PSC-UPTEMPO,Amundsenn,North
2018-06-14T07:40:48Z,1528962048,2018,7,41,165.32,165.32,62.20843,-88.42699,1022.3,0.93,-999.0,yes,yes,no,300234064737090,UPTEMPO,PSC-UPTEMPO,Amundsenn,North
2018-06-14T07:50:52Z,1528962653,2018,7,51,165.327,165.327,62.20938,-88.42992,1022.2,0.94,-999.0,yes,yes,no,300234064737090,UPTEMPO,PSC-UPTEMPO,Amundsenn,North
2018-06-14T08:00:57Z,1528963258,2018,8,1,165.334,165.334,62.21013,-88.43267,1022.0,0.94,-999.0,yes,yes,no,300234064737090,UPTEMPO,PSC-UPTEMPO,Amundsenn,North
2018-06-14T08:11:02Z,1528963862,2018,8,11,165.341,165.341,62.21086,-88.4354,1021.9,0.91,-999.0,yes,yes,no,300234064737090,UPTEMPO,PSC-UPTEMPO,Amundsenn,North
2018-06-14T08:21:07Z,1528964467,2018,8,21,165.348,165.348,62.21152,-88.43796,1021.9,0.9,-999.0,yes,yes,no,300234064737090,UPTEMPO,PSC-UPTEMPO,Amundsenn,North
2018-06-14T08:31:12Z,1528965072,2018,8,31,165.355,165.355,62.21206,-88.44036,1021.8,0.88,-999.0,yes,yes,no,300234064737090,UPTEMPO,PSC-UPTEMPO,Amundsenn,North
2018-06-14T08:41:16Z,1528965677,2018,8,41,165.362,165.362,62.21261,-88.44252,1021.8,0.88,-999.0,yes,yes,no,300234064737090,UPTEMPO,PSC-UPTEMPO,Amundsenn,North
2018-06-14T08:51:21Z,1528966282,2018,8,51,165.369,165.369,62.21308,-88.44453,1021.6,0.89,-999.0,yes,yes,no,300234064737090,UPTEMPO,PSC-UPTEMPO,Amundsenn,North
2018-06-14T09:01:26Z,1528966886,2018,9,1,165.376,165.376,62.21357,-88.4463,1021.6,0.9,-999.0,yes,yes,no,300234064737090,UPTEMPO,PSC-UPTEMPO,Amundsenn,North
2018-06-14T09:11:31Z,1528967491,2018,9,11,165.383,165.383,62.21384,-88.44807,1021.5,0.89,-999.0,yes,yes,no,300234064737090,UPTEMPO,PSC-UPTEMPO,Amundsenn,North
2018-06-14T09:21:36Z,1528968096,2018,9,21,165.39,165.39,62.21395,-88.44941,1021.5,0.91,-999.0,yes,yes,no,300234064737090,UPTEMPO,PSC-UPTEMPO,Amundsenn,North
2018-06-14T09:31:40Z,1528968701,2018,9,31,165.397,165.397,62.21399,-88.45064,1021.5,0.92,-999.0,yes,yes,no,300234064737090,UPTEMPO,PSC-UPTEMPO,Amundsenn,North
2018-06-14T09:40:19Z,1528969219,2018,9,41,165.403,165.403,62.21389,-88.4518,1021.5,0.92,-999.0,yes,yes,no,300234064737090,UPTEMPO,PSC-UPTEMPO,Amundsenn,North
2018-06-14T09:50:24Z,1528969824,2018,9,51,165.41,165.41,62.21377,-88.45278,1021.4,0.92,-999.0,yes,yes,no,300234064737090,UPTEMPO,PSC-UPTEMPO,Amundsenn,North
2018-06-14T10:00:28Z,1528970429,2018,10,1,165.417,165.417,62.21335,-88.45332,1021.4,0.93,-999.0,yes,yes,no,300234064737090,UPTEMPO,PSC-UPTEMPO,Amundsenn,North
2018-06-14T10:10:33Z,1528971034,2018,10,11,165.424,165.424,62.21304,-88.45379,1021.4,0.94,-999.0,yes,yes,no,300234064737090,UPTEMPO,PSC-UPTEMPO,Amundsenn,North
2018-06-14T10:20:38Z,1528971638,2018,10,21,165.431,165.431,62.21256,-88.45393,1021.4,0.94,-999.0,yes,yes,no,300234064737090,UPTEMPO,PSC-UPTEMPO,Amundsenn,North
2018-06-14T10:30:43Z,1528972243,2018,10,31,165.438,165.438,62.21201,-88.45393,1021.3,0.94,-999.0,yes,yes,no,300234064737090,UPTEMPO,PSC-UPTEMPO,Amundsenn,North
2018-06-14T10:40:48Z,1528972848,2018,10,41,165.445,165.445,62.21127,-88.45347,1021.4,0.95,-999.0,yes,yes,no,300234064737090,UPTEMPO,PSC-UPTEMPO,Amundsenn,North
2018-06-14T10:50:52Z,1528973453,2018,10,51,165.452,165.452,62.21043,-88.45267,1021.4,0.96,-999.0,yes,yes,no,300234064737090,UPTEMPO,PSC-UPTEMPO,Amundsenn,North
2018-06-14T11:00:57Z,1528974058,2018,11,1,165.459,165.459,62.20943,-88.45171,1021.5,0.98,-999.0,yes,yes,no,300234064737090,UPTEMPO,PSC-UPTEMPO,Amundsenn,North
2018-06-14T11:11:02Z,1528974662,2018,11,11,165.466,165.466,62.20818,-88.45034,1021.5,0.98,-999.0,yes,yes,no,300234064737090,UPTEMPO,PSC-UPTEMPO,Amundsenn,North
2018-06-14T11:21:07Z,1528975267,2018,11,21,165.473,165.473,62.20701,-88.44898,1021.5,0.97,-999.0,yes,yes,no,300234064737090,UPTEMPO,PSC-UPTEMPO,Amundsenn,North
2018-06-14T11:31:12Z,1528975872,2018,11,31,165.48,165.48,62.20559,-88.44705,1021.4,0.98,-999.0,yes,yes,no,300234064737090,UPTEMPO,PSC-UPTEMPO,Amundsenn,North
2018-06-14T11:41:16Z,1528976477,2018,11,41,165.487,165.487,62.20418,-88.44525,1021.3,0.96,-999.0,yes,yes,no,300234064737090,UPTEMPO,PSC-UPTEMPO,Amundsenn,North
2018-06-14T11:51:21Z,1528977082,2018,11,51,165.494,165.494,62.20258,-88.44331,1021.3,0.97,-999.0,yes,yes,no,300234064737090,UPTEMPO,PSC-UPTEMPO,Amundsenn,North
2018-06-14T12:01:26Z,1528977686,2018,12,1,165.501,165.501,62.20109,-88.44139,1021.3,0.99,-999.0,yes,yes,no,300234064737090,UPTEMPO,PSC-UPTEMPO,Amundsenn,North
2018-06-14T12:11:31Z,1528978291,2018,12,11,165.508,165.508,62.19951,-88.43932,1021.1,1.02,-999.0,yes,yes,no,300234064737090,UPTEMPO,PSC-UPTEMPO,Amundsenn,North
2018-06-14T12:21:36Z,1528978896,2018,12,21,165.515,165.515,62.19791,-88.43707,1021.0,1.05,-999.0,yes,yes,no,300234064737090,UPTEMPO,PSC-UPTEMPO,Amundsenn,North
2018-06-14T12:31:40Z,1528979501,2018,12,31,165.522,165.522,62.19632,-88.43473,1021.0,1.1,-999.0,yes,yes,no,300234064737090,UPTEMPO,PSC-UPTEMPO,Amundsenn,North
2018-06-14T12:40:19Z,1528980019,2018,12,41,165.528,165.528,62.19462,-88.43221,1021.0,1.14,-999.0,yes,yes,no,300234064737090,UPTEMPO,PSC-UPTEMPO,Amundsenn,North
2018-06-14T12:50:24Z,1528980624,2018,12,51,165.535,165.535,62.19298,-88.42969,1020.9,1.23,-999.0,yes,yes,no,300234064737090,UPTEMPO,PSC-UPTEMPO,Amundsenn,North
2018-06-14T13:00:28Z,1528981229,2018,13,1,165.542,165.542,62.19136,-88.42711,1020.8,1.26,-999.0,yes,yes,no,300234064737090,UPTEMPO,PSC-UPTEMPO,Amundsenn,North
2018-06-14T13:10:33Z,1528981834,2018,13,11,165.549,165.549,62.18966,-88.42441,1020.7,1.33,-999.0,yes,yes,no,300234064737090,UPTEMPO,PSC-UPTEMPO,Amundsenn,North
2018-06-14T13:20:38Z,1528982438,2018,13,21,165.556,165.556,62.18796,-88.42175,1020.8,1.38,-999.0,yes,yes,no,300234064737090,UPTEMPO,PSC-UPTEMPO,Amundsenn,North
2018-06-14T13:30:43Z,1528983043,2018,13,31,165.563,165.563,62.18637,-88.41899,1020.8,1.41,-999.0,yes,yes,no,300234064737090,UPTEMPO,PSC-UPTEMPO,Amundsenn,North
2018-06-14T13:40:48Z,1528983648,2018,13,41,165.57,165.57,62.18491,-88.41625,1020.8,1.48,-999.0,yes,yes,no,300234064737090,UPTEMPO,PSC-UPTEMPO,Amundsenn,North
2018-06-14T13:50:52Z,1528984253,2018,13,51,165.577,165.577,62.18333,-88.41361,1020.7,1.52,-999.0,yes,yes,no,300234064737090,UPTEMPO,PSC-UPTEMPO,Amundsenn,North
2018-06-14T14:00:57Z,1528984858,2018,14,1,165.584,165.584,62.18189,-88.41098,1020.6,1.51,-999.0,yes,yes,no,300234064737090,UPTEMPO,PSC-UPTEMPO,Amundsenn,North
2018-06-14T14:11:02Z,1528985462,2018,14,11,165.591,165.591,62.18045,-88.40832,1020.5,1.52,-999.0,yes,yes,no,300234064737090,UPTEMPO,PSC-UPTEMPO,Amundsenn,North
2018-06-14T14:21:07Z,1528986067,2018,14,21,165.598,165.598,62.17905,-88.40593,1020.6,1.69,-999.0,yes,yes,no,300234064737090,UPTEMPO,PSC-UPTEMPO,Amundsenn,North
2018-06-14T14:31:12Z,1528986672,2018,14,31,165.605,165.605,62.17758,-88.40325,1020.5,1.68,-999.0,yes,yes,no,300234064737090,UPTEMPO,PSC-UPTEMPO,Amundsenn,North
2018-06-14T14:41:16Z,1528987277,2018,14,41,165.612,165.612,62.17629,-88.40107,1020.4,1.7,-999.0,yes,yes,no,300234064737090,UPTEMPO,PSC-UPTEMPO,Amundsenn,North
2018-06-14T14:51:21Z,1528987882,2018,14,51,165.619,165.619,62.17501,-88.39888,1020.4,1.73,-999.0,yes,yes,no,300234064737090,UPTEMPO,PSC-UPTEMPO,Amundsenn,North
2018-06-14T15:01:26Z,1528988486,2018,15,1,165.626,165.626,62.1739,-88.39691,1020.4,1.8,-999.0,yes,yes,no,300234064737090,UPTEMPO,PSC-UPTEMPO,Amundsenn,North
2018-06-14T15:11:31Z,1528989091,2018,15,11,165.633,165.633,62.17287,-88.39501,1020.5,1.81,-999.0,yes,yes,no,300234064737090,UPTEMPO,PSC-UPTEMPO,Amundsenn,North
2018-06-14T15:21:36Z,1528989696,2018,15,21,165.64,165.64,62.17201,-88.39336,1020.4,1.74,-999.0,yes,yes,no,300234064737090,UPTEMPO,PSC-UPTEMPO,Amundsenn,North
2018-06-14T15:31:40Z,1528990301,2018,15,31,165.647,165.647,62.17133,-88.39175,1020.4,1.63,-999.0,yes,yes,no,300234064737090,UPTEMPO,PSC-UPTEMPO,Amundsenn,North
2018-06-14T15:40:19Z,1528990819,2018,15,41,165.653,165.653,62.17068,-88.39019,1020.4,1.64,-999.0,yes,yes,no,300234064737090,UPTEMPO,PSC-UPTEMPO,Amundsenn,North
2018-06-14T15:50:24Z,1528991424,2018,15,51,165.66,165.66,62.1702,-88.38896,1020.3,1.59,-999.0,yes,yes,no,300234064737090,UPTEMPO,PSC-UPTEMPO,Amundsenn,North
2018-06-14T16:00:28Z,1528992029,2018,16,1,165.667,165.667,62.16983,-88.38802,1020.4,1.6,-999.0,yes,yes,no,300234064737090,UPTEMPO,PSC-UPTEMPO,Amundsenn,North
2018-06-14T16:10:33Z,1528992634,2018,16,11,165.674,165.674,62.16947,-88.38718,1020.3,1.65,-999.0,yes,yes,no,300234064737090,UPTEMPO,PSC-UPTEMPO,Amundsenn,North
2018-06-14T16:20:38Z,1528993238,2018,16,21,165.681,165.681,62.16932,-88.38654,1020.2,1.75,-999.0,yes,yes,no,300234064737090,UPTEMPO,PSC-UPTEMPO,Amundsenn,North
2018-06-14T16:30:43Z,1528993843,2018,16,31,165.688,165.688,62.16936,-88.38645,1020.1,1.78,-999.0,yes,yes,no,300234064737090,UPTEMPO,PSC-UPTEMPO,Amundsenn,North
2018-06-14T16:40:48Z,1528994448,2018,16,41,165.695,165.695,62.16956,-88.38656,1020.0,1.79,-999.0,yes,yes,no,300234064737090,UPTEMPO,PSC-UPTEMPO,Amundsenn,North